When you browse on this site, cookies collect data to enhance your experience and personalize the content and advertising you see.
Visit our Privacy Policy to learn more. By continuing to use the site, you agree to this use of cookies and data.
  • En España
  • Lista de países
  • Para 7 días
  • Temperatura del agua
  • El tiempo en el mapa
  • Informadores
  • user-avatar
    Iniciar sesión

    Tiempo cada hora Almería

    Hoy, 21 Febrero, Viernes

    Tiempo Temperatura Precipitaciones Viento Presión Humedad
    00:00 +14°C° 0 mm 3 mps 767 mmHg 78%
    01:00 +13°C° 0 mm 3 mps 767 mmHg 77%
    02:00 +13°C° 0 mm 3 mps 767 mmHg 77%
    03:00 +13°C° 0 mm 3 mps 767 mmHg 76%
    04:00 +13°C° 0 mm 3 mps 767 mmHg 74%
    05:00 +13°C° 0 mm 3 mps 767 mmHg 72%
    06:00 +13°C° 0 mm 4 mps 768 mmHg 69%
    13:00 +19°C° 0 mm 6 mps 769 mmHg 41%
    14:00 +20°C° 0 mm 7 mps 769 mmHg 42%
    15:00 +20°C° 0 mm 7 mps 768 mmHg 43%
    16:00 +19°C° 0 mm 6 mps 769 mmHg 49%
    17:00 +17°C° 0 mm 6 mps 769 mmHg 56%
    18:00 +15°C° 0 mm 6 mps 769 mmHg 63%
    19:00 +15°C° 0 mm 5 mps 769 mmHg 64%
    20:00 +15°C° 0 mm 5 mps 770 mmHg 66%
    21:00 +14°C° 0 mm 5 mps 770 mmHg 67%
    22:00 +14°C° 0 mm 4 mps 770 mmHg 65%
    23:00 +13°C° 0 mm 4 mps 770 mmHg 64%

    Mañana, 22 Febrero, Sábado

    Tiempo Temperatura Precipitaciones Viento Presión Humedad
    00:00 +13°C° 0 mm 3 mps 770 mmHg 62%
    01:00 +13°C° 0 mm 3 mps 770 mmHg 58%
    02:00 +13°C° 0 mm 3 mps 770 mmHg 54%
    03:00 +13°C° 0 mm 3 mps 770 mmHg 50%
    04:00 +12°C° 0 mm 3 mps 770 mmHg 49%
    05:00 +12°C° 0 mm 3 mps 770 mmHg 48%
    06:00 +12°C° 0 mm 3 mps 770 mmHg 46%
    07:00 +13°C° 0 mm 3 mps 770 mmHg 42%
    08:00 +16°C° 0 mm 3 mps 771 mmHg 39%
    09:00 +18°C° 0 mm 3 mps 771 mmHg 35%
    10:00 +19°C° 0 mm 3 mps 771 mmHg 33%
    11:00 +20°C° 0 mm 3 mps 771 mmHg 31%
    12:00 +21°C° 0 mm 3 mps 771 mmHg 29%
    13:00 +21°C° 0 mm 4 mps 771 mmHg 30%
    14:00 +21°C° 0 mm 4 mps 770 mmHg 30%
    15:00 +22°C° 0 mm 4 mps 770 mmHg 31%
    16:00 +20°C° 0 mm 4 mps 770 mmHg 38%
    17:00 +19°C° 0 mm 4 mps 770 mmHg 46%
    18:00 +17°C° 0 mm 4 mps 770 mmHg 53%
    19:00 +17°C° 0 mm 4 mps 771 mmHg 55%
    20:00 +15°C° 0 mm 5 mps 771 mmHg 56%
    21:00 +15°C° 0 mm 5 mps 772 mmHg 58%
    22:00 +14°C° 0 mm 5 mps 772 mmHg 57%
    23:00 +14°C° 0 mm 5 mps 772 mmHg 57%

    Pasado mañana, 23 Febrero, Domingo

    Tiempo Temperatura Precipitaciones Viento Presión Humedad
    00:00 +14°C° 0 mm 5 mps 772 mmHg 56%
    01:00 +14°C° 0 mm 5 mps 772 mmHg 55%
    02:00 +13°C° 0 mm 5 mps 771 mmHg 53%
    03:00 +13°C° 0 mm 5 mps 771 mmHg 52%
    04:00 +13°C° 0 mm 5 mps 771 mmHg 52%
    05:00 +13°C° 0 mm 5 mps 771 mmHg 52%
    06:00 +12°C° 0 mm 5 mps 771 mmHg 52%
    07:00 +14°C° 0 mm 5 mps 772 mmHg 47%
    08:00 +15°C° 0 mm 5 mps 772 mmHg 42%
    09:00 +17°C° 0 mm 5 mps 772 mmHg 37%
    10:00 +19°C° 0 mm 5 mps 772 mmHg 33%
    11:00 +20°C° 0 mm 6 mps 772 mmHg 30%
    12:00 +21°C° 0 mm 6 mps 772 mmHg 26%
    13:00 +21°C° 0 mm 6 mps 771 mmHg 28%
    14:00 +21°C° 0 mm 6 mps 771 mmHg 29%
    15:00 +21°C° 0 mm 6 mps 770 mmHg 31%
    16:00 +20°C° 0 mm 6 mps 770 mmHg 38%
    17:00 +17°C° 0 mm 5 mps 770 mmHg 45%
    18:00 +16°C° 0 mm 5 mps 770 mmHg 52%
    19:00 +17°C° 0 mm 4 mps 770 mmHg 52%
    20:00 +15°C° 0 mm 4 mps 771 mmHg 52%
    21:00 +15°C° 0 mm 4 mps 771 mmHg 52%
    22:00 +15°C° 0 mm 4 mps 771 mmHg 50%
    23:00 +14°C° 0 mm 4 mps 771 mmHg 49%

    24 Febrero, Lunes

    Tiempo Temperatura Precipitaciones Viento Presión Humedad
    00:00 +14°C° 0 mm 4 mps 770 mmHg 48%
    01:00 +14°C° 0 mm 4 mps 770 mmHg 47%
    02:00 +14°C° 0 mm 3 mps 770 mmHg 45%
    03:00 +14°C° 0 mm 3 mps 769 mmHg 44%
    04:00 +14°C° 0 mm 3 mps 769 mmHg 43%
    05:00 +13°C° 0 mm 3 mps 769 mmHg 42%
    06:00 +13°C° 0 mm 3 mps 769 mmHg 42%
    07:00 +16°C° 0 mm 2 mps 769 mmHg 40%
    08:00 +18°C° 0 mm 2 mps 769 mmHg 37%
    09:00 +20°C° 0 mm 2 mps 769 mmHg 35%
    10:00 +21°C° 0 mm 2 mps 769 mmHg 34%
    11:00 +21°C° 0 mm 2 mps 768 mmHg 33%
    12:00 +23°C° 0 mm 2 mps 768 mmHg 32%
    13:00 +23°C° 0 mm 2 mps 768 mmHg 35%
    14:00 +23°C° 0 mm 2 mps 767 mmHg 37%
    15:00 +23°C° 0 mm 2 mps 767 mmHg 40%
    16:00 +21°C° 0 mm 2 mps 767 mmHg 46%
    17:00 +20°C° 0 mm 2 mps 767 mmHg 53%
    18:00 +18°C° 0 mm 2 mps 767 mmHg 59%
    19:00 +18°C° 0 mm 2 mps 767 mmHg 58%
    20:00 +18°C° 0 mm 3 mps 767 mmHg 57%
    21:00 +18°C° 0 mm 3 mps 767 mmHg 57%
    22:00 +17°C° 0 mm 3 mps 767 mmHg 57%
    23:00 +17°C° 0 mm 3 mps 767 mmHg 57%

    25 Febrero, Martes

    Tiempo Temperatura Precipitaciones Viento Presión Humedad
    00:00 +17°C° 0 mm 3 mps 767 mmHg 57%
    01:00 +17°C° 0 mm 3 mps 767 mmHg 55%
    02:00 +16°C° 0 mm 3 mps 767 mmHg 54%
    03:00 +16°C° 0 mm 3 mps 766 mmHg 53%
    04:00 +16°C° 0 mm 2 mps 766 mmHg 54%
    05:00 +15°C° 0 mm 2 mps 766 mmHg 54%
    06:00 +15°C° 0 mm 2 mps 766 mmHg 55%
    07:00 +17°C° 0 mm 2 mps 766 mmHg 49%
    08:00 +19°C° 0 mm 2 mps 767 mmHg 43%
    09:00 +21°C° 0 mm 2 mps 767 mmHg 37%
    10:00 +23°C° 0 mm 2 mps 767 mmHg 34%
    11:00 +24°C° 0 mm 1 mps 766 mmHg 31%
    12:00 +25°C° 0 mm 1 mps 766 mmHg 28%
    13:00 +25°C° 0 mm 2 mps 766 mmHg 29%
    14:00 +25°C° 0 mm 2 mps 765 mmHg 30%
    15:00 +25°C° 0 mm 2 mps 765 mmHg 31%
    16:00 +23°C° 0 mm 1 mps 765 mmHg 37%
    17:00 +22°C° 0 mm 1 mps 765 mmHg 43%
    18:00 +20°C° 0 mm 1 mps 765 mmHg 48%
    19:00 +20°C° 0 mm 1 mps 765 mmHg 46%
    20:00 +20°C° 0 mm 1 mps 766 mmHg 44%
    21:00 +19°C° 0 mm 1 mps 766 mmHg 42%
    22:00 +18°C° 0 mm 2 mps 766 mmHg 43%
    23:00 +17°C° 0 mm 2 mps 766 mmHg 43%

    26 Febrero, Miércoles

    Tiempo Temperatura Precipitaciones Viento Presión Humedad
    00:00 +17°C° 0 mm 2 mps 766 mmHg 44%
    01:00 +17°C° 0 mm 2 mps 766 mmHg 44%
    02:00 +16°C° 0 mm 2 mps 765 mmHg 44%
    03:00 +16°C° 0 mm 2 mps 765 mmHg 44%
    04:00 +16°C° 0 mm 2 mps 765 mmHg 44%
    05:00 +16°C° 0 mm 2 mps 765 mmHg 44%
    06:00 +15°C° 0 mm 2 mps 765 mmHg 44%
    07:00 +17°C° 0 mm 2 mps 765 mmHg 41%
    08:00 +18°C° 0 mm 2 mps 766 mmHg 39%
    09:00 +20°C° 0 mm 2 mps 766 mmHg 36%
    10:00 +20°C° 0 mm 2 mps 766 mmHg 37%
    11:00 +21°C° 0 mm 2 mps 765 mmHg 38%
    12:00 +21°C° 0 mm 2 mps 765 mmHg 40%
    13:00 +21°C° 0 mm 2 mps 765 mmHg 41%
    14:00 +21°C° 0 mm 2 mps 764 mmHg 42%
    15:00 +23°C° 0 mm 2 mps 764 mmHg 43%
    16:00 +20°C° 0 mm 2 mps 764 mmHg 47%
    17:00 +19°C° 0 mm 2 mps 764 mmHg 51%
    18:00 +18°C° 0 mm 2 mps 764 mmHg 55%
    19:00 +18°C° 0 mm 2 mps 764 mmHg 57%
    20:00 +17°C° 0 mm 2 mps 764 mmHg 59%
    21:00 +17°C° 0 mm 2 mps 765 mmHg 60%
    22:00 +17°C° 0 mm 2 mps 765 mmHg 61%
    23:00 +16°C° 0 mm 2 mps 765 mmHg 62%
    Mostrar más